Torna al catalogo

SCOUT A-1 R/B

AttivoPO
NORAD 6910·ROCKET BODY·🇺🇸 United States

Lanciato Oct 30, 1973 da Vandenberg Space Force Base

Loading…

Prossimi Passaggi (prossime 24 ore)

TLE

AggiornatoSource: Space-Track

Epoca: Sep 14, 2026, 10:12 UTC

1 06910U 73081B   26257.42509849  .00000002  00000-0 -96648-5 0  9999
2 06910  89.8669 248.8792 0159355  44.0927 317.2813 13.69801681639048

Traccia SCOUT A-1 R/B in tempo reale con AllMySat

Download on the App Store